Location: LDNL
(36.4545°S, 141.6685°E)
Time: 10:13:52
(UTC+11:00)

Courier 1B - Pass Details

Date: 10 February 2023
Orbit: 962 x 1209 km, 28.3° (Epoch: 21 March)

Event Time Altitude Azimuth Distance (km) Brightness Sun altitude
Rises 20:51:18 0° 338° (NNW) 3,667 10.5 -3.8°
Reaches altitude 10° 20:55:44 10° 6° (N) 2,766 9.6 -4.6°
Maximum altitude 20:58:26 13° 30° (NNE) 2,606 9.3 -5.1°
Drops below altitude 10° 21:01:11 10° 54° (NE) 2,836 9.3 -5.7°
Enters shadow 21:02:52 - 66° (ENE) 3,138 9.4 -6.0°
